Home > Products > Valid Products > RWR

000
ASUS42 KKEY 310410
RWRKEY

FLORIDA REGIONAL WEATHER ROUNDUP FOR THE FLORIDA KEYS
NATIONAL WEATHER SERVICE KEY WEST FLORIDA
1200 AM EDT TUE MAY 31 2016

...SOUTH FLORIDA AND THE KEYS...

CITY           SKY/WX    TMP DP  RH WIND       PRES   REMARKS
FORT MYERS     CLOUDY    74  70  87 CALM      29.98S
SW REGIONAL AP CLOUDY    73  70  90 CALM      29.99S
NAPLES         CLEAR     75  69  81 CALM      29.98S
MIAMI          MOCLDY    80  70  71 E3        29.98F
WEST KENDALL   CLOUDY    76  72  87 NW5       29.98F
HOMESTEAD      NOT AVBL
MARATHON       PTCLDY    82  71  69 E6        29.97F
BOCA CHICA NAS PTCLDY    80  72  76 E8        29.97F
KEY WEST INTL  PTCLDY    81  74  79 E9        29.97F

...INTERNATIONAL WEATHER...

CITY           SKY/WX    TMP DP  RH WIND       PRES   REMARKS
NASSAU BAHAMAS PTCLDY    79  72  78 E7        29.99S
CANCUN MEXICO  MOCLDY    82  73  74 NE8       29.94S
COZUMEL MEXICO PTCLDY    75  73  94 E3        29.93F

ADJACENT COASTAL WATERS...

STATION/POSITION TIME  SKY/WX   TEMP    WIND        PRES    WAVE
                                AIR SEA DIR/SP/G            HT/PER
                 (UTC)          (F)     (DEG/KT/KT) (MB)    (FT/S)
PULASKI SHOAL LI 0400            82     140/  6/  8 1015.0F
SAND KEY         0350            81     120/ 10/ 12 1015.3F
SOMBRERO KEY     NOT AVBL
LONG KEY         0300            82 87  120/  8/ 10 1015.7R
MOLASSES REEF    NOT AVBL
FOWEY ROCKS      0400            81 83  110/  8/  9 1015.5F

$$






000
ASUS42 KKEY 310310
RWRKEY

FLORIDA REGIONAL WEATHER ROUNDUP FOR THE FLORIDA KEYS
NATIONAL WEATHER SERVICE KEY WEST FLORIDA
1100 PM EDT MON MAY 30 2016

...SOUTH FLORIDA AND THE KEYS...

CITY           SKY/WX    TMP DP  RH WIND       PRES   REMARKS
FORT MYERS     CLOUDY    74  71  91 S5        29.98R
SW REGIONAL AP PTCLDY    73  70  90 SE3       29.99R
NAPLES         PTCLDY    74  70  87 E5        29.98S
MIAMI          MOCLDY    80  70  71 SE6       29.99R
WEST KENDALL   CLOUDY    77  71  82 S5        29.99R
HOMESTEAD      LGT RAIN  77  70  78 N6        29.99R
MARATHON       PTCLDY    82  72  71 E5        29.98R
BOCA CHICA NAS CLEAR     80  72  76 SE3       29.98R
KEY WEST INTL  CLEAR     81  73  76 E9        29.98R

...INTERNATIONAL WEATHER...

CITY           SKY/WX    TMP DP  RH WIND       PRES   REMARKS
NASSAU BAHAMAS MOCLDY    77  75  94 NE3       29.99F
CANCUN MEXICO  MOCLDY    82  75  78 NE5       29.94R
COZUMEL MEXICO PTCLDY    77  73  88 CALM      29.94R

ADJACENT COASTAL WATERS...

STATION/POSITION TIME  SKY/WX   TEMP    WIND        PRES    WAVE
                                AIR SEA DIR/SP/G            HT/PER
                 (UTC)          (F)     (DEG/KT/KT) (MB)    (FT/S)
PULASKI SHOAL LI 0300            82     110/  6/  7 1015.2R
SAND KEY         0250            81     100/  9/ 11 1015.4R
SOMBRERO KEY     NOT AVBL
LONG KEY         0200            82 87  100/  8/  9 1015.3R
MOLASSES REEF    0100            82 84  120/  6/  7 1015.0
FOWEY ROCKS      0300            82 83  110/  9/ 10 1015.9R

$$






000
ASUS42 KKEY 310110
RWRKEY

FLORIDA REGIONAL WEATHER ROUNDUP FOR THE FLORIDA KEYS
NATIONAL WEATHER SERVICE KEY WEST FLORIDA
900 PM EDT MON MAY 30 2016

...SOUTH FLORIDA AND THE KEYS...

CITY           SKY/WX    TMP DP  RH WIND       PRES   REMARKS
FORT MYERS     CLOUDY    73  71  93 SE5       29.97S
SW REGIONAL AP LGT RAIN  73  70  90 E5        29.98R
NAPLES         PTCLDY    75  69  81 S7        29.96S
MIAMI          CLOUDY    81  70  69 E7        29.97R
WEST KENDALL   CLOUDY    77  71  82 W6        29.97R
HOMESTEAD      CLOUDY    80  72  75 N3        29.97R
MARATHON       CLEAR     82  69  64 E7        29.96R
BOCA CHICA NAS PTCLDY    82  71  69 E7        29.97R THUNDER
KEY WEST INTL  MOCLDY    81  73  76 E5        29.97R THUNDER

...INTERNATIONAL WEATHER...

CITY           SKY/WX    TMP DP  RH WIND       PRES   REMARKS
NASSAU BAHAMAS MOCLDY    81  77  89 CALM      29.98R
CANCUN MEXICO  MOCLDY    82  73  74 E5        29.91R
COZUMEL MEXICO MOCLDY    79  75  89 NE5       29.90R

ADJACENT COASTAL WATERS...

STATION/POSITION TIME  SKY/WX   TEMP    WIND        PRES    WAVE
                                AIR SEA DIR/SP/G            HT/PER
                 (UTC)          (F)     (DEG/KT/KT) (MB)    (FT/S)
PULASKI SHOAL LI 0100            82     100/  7/  7 1014.8R
SAND KEY         0050            82     120/  8/ 10 1015.1R
SOMBRERO KEY     NOT AVBL
LONG KEY         0000            83 88  110/  9/ 11 1014.7R
MOLASSES REEF    NOT AVBL
FOWEY ROCKS      0100            81 83   90/  7/  8 1015.3F

$$






000
ASUS42 KKEY 301210
RWRKEY

FLORIDA REGIONAL WEATHER ROUNDUP FOR THE FLORIDA KEYS
NATIONAL WEATHER SERVICE KEY WEST FLORIDA
800 AM EDT MON MAY 30 2016

...SOUTH FLORIDA AND THE KEYS...

CITY           SKY/WX    TMP DP  RH WIND       PRES   REMARKS
FORT MYERS     MOSUNNY   73  69  87 E3        30.01R
SW REGIONAL AP SUNNY     74  67  78 CALM      30.02R
NAPLES           N/A    N/A N/A N/A MISG      30.01R
MIAMI          PTSUNNY   80  72  76 CALM      30.00S
WEST KENDALL   SUNNY     79  71  76 NE5       30.00S
HOMESTEAD      SUNNY     78  72  82 N3        30.00R
MARATHON       MOSUNNY   83  70  64 E3        29.99R
BOCA CHICA NAS SUNNY     82  73  74 E7        29.99R
KEY WEST INTL  PTSUNNY   81  74  79 E6        29.99R

...INTERNATIONAL WEATHER...

CITY           SKY/WX    TMP DP  RH WIND       PRES   REMARKS
NASSAU BAHAMAS MOSUNNY   82  77  83 NE5       30.01R HX  91
CANCUN MEXICO  MOSUNNY   73  72  94 CALM      29.95R
COZUMEL MEXICO SUNNY     72  72 100 CALM      29.95R

ADJACENT COASTAL WATERS...

STATION/POSITION TIME  SKY/WX   TEMP    WIND        PRES    WAVE
                                AIR SEA DIR/SP/G            HT/PER
                 (UTC)          (F)     (DEG/KT/KT) (MB)    (FT/S)
PULASKI SHOAL LI 1200            82      60/  6/  7 1015.9R
SAND KEY         1150            81     120/  7/  8 1015.8R
SOMBRERO KEY     NOT AVBL
LONG KEY         1100            81 85  110/  6/  7 1015.7R
MOLASSES REEF    1200            82 83   50/  6/  7 1016.0
FOWEY ROCKS      1200            82 81   80/  5/  5 1016.5R

$$






000
ASUS42 KKEY 301110
RWRKEY

FLORIDA REGIONAL WEATHER ROUNDUP FOR THE FLORIDA KEYS
NATIONAL WEATHER SERVICE KEY WEST FLORIDA
700 AM EDT MON MAY 30 2016

...SOUTH FLORIDA AND THE KEYS...

CITY           SKY/WX    TMP DP  RH WIND       PRES   REMARKS
FORT MYERS     CLEAR     71  69  93 NE3       30.00R
SW REGIONAL AP CLEAR     71  67  87 NE6       30.00R
NAPLES           N/A    N/A N/A N/A MISG      30.00R
MIAMI          MOCLDY    77  71  82 NE3       30.00R
WEST KENDALL   PTCLDY    75  71  87 N3        30.00R
HOMESTEAD      CLEAR     75  71  88 N2        29.99R
MARATHON       CLEAR     80  70  71 CALM      29.98R
BOCA CHICA NAS PTCLDY    80  73  79 NE3       29.98R
KEY WEST INTL  PTCLDY    80  74  81 E5        29.98R

...INTERNATIONAL WEATHER...

CITY           SKY/WX    TMP DP  RH WIND       PRES   REMARKS
NASSAU BAHAMAS PTCLDY    75  70  83 CALM      30.00R
CANCUN MEXICO  PTCLDY    73  72  94 CALM      29.94S
COZUMEL MEXICO CLEAR     70  70 100 CALM      29.94S

ADJACENT COASTAL WATERS...

STATION/POSITION TIME  SKY/WX   TEMP    WIND        PRES    WAVE
                                AIR SEA DIR/SP/G            HT/PER
                 (UTC)          (F)     (DEG/KT/KT) (MB)    (FT/S)
PULASKI SHOAL LI 1100            81      60/  4/  5 1015.6R
SAND KEY         1050            81     110/  6/  7 1015.5R
SOMBRERO KEY     NOT AVBL
LONG KEY         1000            81 86  110/  8/  9 1015.0R
MOLASSES REEF    NOT AVBL
FOWEY ROCKS      1100            80 82   90/  4/  5 1016.2R

$$






000
ASUS42 KKEY 300810
RWRKEY

FLORIDA REGIONAL WEATHER ROUNDUP FOR THE FLORIDA KEYS
NATIONAL WEATHER SERVICE KEY WEST FLORIDA
400 AM EDT MON MAY 30 2016

...SOUTH FLORIDA AND THE KEYS...

CITY           SKY/WX    TMP DP  RH WIND       PRES   REMARKS
FORT MYERS     CLEAR     73  69  87 CALM      29.98S
SW REGIONAL AP CLEAR     72  67  84 CALM      29.98S
NAPLES           N/A    N/A N/A N/A MISG      29.97F
MIAMI          PTCLDY    77  71  82 N3        29.98F
WEST KENDALL   CLEAR     73  70  90 CALM      29.97F
HOMESTEAD      CLEAR     74  71  90 NW3       29.97F
MARATHON       PTCLDY    81  71  71 E6        29.96F
BOCA CHICA NAS CLEAR     79  73  82 E3        29.96F
KEY WEST INTL  PTCLDY    80  73  79 SE7       29.97S

...INTERNATIONAL WEATHER...

CITY           SKY/WX    TMP DP  RH WIND       PRES   REMARKS
NASSAU BAHAMAS PTCLDY    77  75  94 CALM      29.98S
CANCUN MEXICO  CLEAR     79  75  89 NE7       29.96F
COZUMEL MEXICO CLEAR     72  72 100 CALM      29.95F

ADJACENT COASTAL WATERS...

STATION/POSITION TIME  SKY/WX   TEMP    WIND        PRES    WAVE
                                AIR SEA DIR/SP/G            HT/PER
                 (UTC)          (F)     (DEG/KT/KT) (MB)    (FT/S)
PULASKI SHOAL LI 0800            81      40/  3/  4 1014.8F
SAND KEY         0750            81     110/  8/  9 1015.1F
SOMBRERO KEY     NOT AVBL
LONG KEY         0700            81 86  100/  9/ 11 1015.2F
MOLASSES REEF    NOT AVBL
FOWEY ROCKS      0800            80 82   50/  4/  4 1015.5F

$$






000
ASUS42 KKEY 300710
RWRKEY

FLORIDA REGIONAL WEATHER ROUNDUP FOR THE FLORIDA KEYS
NATIONAL WEATHER SERVICE KEY WEST FLORIDA
300 AM EDT MON MAY 30 2016

...SOUTH FLORIDA AND THE KEYS...

CITY           SKY/WX    TMP DP  RH WIND       PRES   REMARKS
FORT MYERS     CLEAR     72  68  87 E3        29.98F
SW REGIONAL AP CLEAR     72  68  87 E3        29.98F
NAPLES           N/A     73  69  87 MISG      29.98F
MIAMI          PTCLDY    77  71  82 N3        29.99F
WEST KENDALL   CLEAR     74  71  91 N3        29.99F
HOMESTEAD      CLEAR     74  72  91 NW5       29.98F
MARATHON       PTCLDY    80  70  71 VRB3      29.97F
BOCA CHICA NAS PTCLDY    80  73  79 E8        29.97F
KEY WEST INTL  PTCLDY    81  73  76 E6        29.97F

...INTERNATIONAL WEATHER...

CITY           SKY/WX    TMP DP  RH WIND       PRES   REMARKS
NASSAU BAHAMAS NOT AVBL
CANCUN MEXICO  CLEAR     81  75  83 E8        29.97F
COZUMEL MEXICO CLEAR     73  73 100 CALM      29.97F

ADJACENT COASTAL WATERS...

STATION/POSITION TIME  SKY/WX   TEMP    WIND        PRES    WAVE
                                AIR SEA DIR/SP/G            HT/PER
                 (UTC)          (F)     (DEG/KT/KT) (MB)    (FT/S)
PULASKI SHOAL LI 0700            81      40/  4/  5 1015.1F
SAND KEY         0650            81     130/  7/  9 1015.4F
SOMBRERO KEY     NOT AVBL
LONG KEY         0600            82 86  110/  8/  9 1016.0F
MOLASSES REEF    0500            81 83   80/  7/  8 1016.5F
FOWEY ROCKS      0700            81 82  100/  2/  3 1015.9F

$$






    US Dept of Commerce
    National Oceanic and Atmospheric Administration
    National Weather Service
    1325 East West Highway
    Silver Spring, MD 20910
    Page Author: NWS Internet Services Team
Disclaimer
Information Quality
Credits
Glossary
Privacy Policy
Freedom of Information Act (FOIA)
About Us
Career Opportunities